Location: Dannhausen
(51.8650°N, 10.1026°E)
Time: 02:33:49
(UTC+00:00)

STARLINK-1143 - Pass Details

Date: 09 April 2020
Orbit: 548 x 551 km, 53.0° (Epoch: 06 June)

Event Time Altitude Azimuth Distance (km) Brightness Sun altitude
Rises 19:56:43 0° 288° (WNW) 2,731 8.6 -16.0°
Reaches altitude 10° 19:59:01 10° 283° (WNW) 1,834 7.3 -16.3°
Maximum altitude 20:03:01 46° 210° (SSW) 752 4.2 -16.7°
Enters shadow 20:04:29 31° 159° (SSE) 973 4.4 -16.9°
